Location: Fernhill
(41.0167°S, 175.6333°E)
Time: 16:21:04
(UTC+00:00)

Meteor 2-6 Rocket - Pass Details

Date: 22 February 2026
Orbit: 804 x 913 km, 81.3° (Epoch: 8 March)

Event Time Altitude Azimuth Distance (km) Brightness Sun altitude
Exits shadow 10:22:03 48° 287° (WNW) 1,153 4.9 -30.9°
Maximum altitude 10:22:56 53° 256° (WSW) 1,099 4.9 -31.0°
Drops below altitude 10° 10:28:47 10° 180° (S) 2,619 7.3 -31.6°
Sets 10:31:23 0° 174° (S) 3,576 8.1 -31.9°
